Погода в Корумбе

Бразилия     19°00′13″S   57°38′39″W
темп.,
°C
ветер,
м/с
пор.,
м/с
влажн.,
%
обл.,
%
осадки,
мм/ч
давл.,
гПа
погр.,
м
26 февраля, пт
пт2623:00+27юв1164100 0.1 100826
02:00+24св0082100 0.4 100624
05:00+23в1188100 0.2 100728
08:00+27вюв0182100 1.1 1009247
11:00+36юв024596 1.3 10091395
14:00+36ююз224198 1.3 10051999
17:00+34ю124883 0.0 10031014
20:00+29ююв125852 0.0 100526
27 февраля, сб
сб2723:00+27вюв126721 0.1 100730
02:00+23всв119310 1.1 100733
05:00+23в129645 0.3 100838
08:00+27вюв148133 0.3 1009391
11:00+35юв24410 0.0 10091648
14:00+37ю33290 0.0 10052572
17:00+35юв25360 0.0 10031101
20:00+28юв39490 0.0 1005252
28 февраля, вс
вс2823:00+27вюв312610 0.0 1008431
02:00+24юв27780 0.0 1006231
05:00+23юв13850 0.0 100764
08:00+28юв24650 0.0 1007477
11:00+35вюв22420 0.0 10071643
14:00+38ююв22300 0.0 10032562
17:00+34ююв233928 0.0 10011205
20:00+29юв255031 0.0 1003167
1 марта, пн
пн123:00+26вюв286633 0.0 1006233
02:00+24всв138417 0.1 100580
05:00+23в12920 0.0 100643
08:00+27всв24770 0.0 1007447
11:00+33всв22501 0.0 10061412
14:00+36юв214024 0.1 10032011
17:00+33вюв234847 0.0 10011227
20:00+28в396734 0.0 1004307
2 марта, вт
вт223:00+24всв210910 0.6 1007420
02:00+23всв29970 0.6 1006430
05:00+22всв249915 0.0 1007156
08:00+25св258425 0.0 1009534
11:00+33ссв345137 0.1 10081410
14:00+29сз127962 5.9 1005531
17:00+30всв236638 1.8 1004570
20:00+26в228531 1.8 100676